Location: C.E.K. Mees Observatory
(42.7003°N, 77.4088°W)
Time: 20:18:06
(UTC-05:00)

Vanguard 1 - Visible Passes

Search period start: 17 December 2017 00:00
Search period end: 27 December 2017 00:00
Orbit: 650 x 3834 km, 34.2° (Epoch: 16 December)

Date Brightness Start Highest point End Pass type
(mag) Time Alt. Az. Time Alt. Az. Time Alt. Az.
17 Dec 14.5 04:43:22 10° SSE 04:56:08 18° SE 05:08:27 10° E visible
17 Dec 14.0 06:58:47 10° SSW 07:19:41 43° SSE 07:36:17 10° E visible
18 Dec 14.3 05:00:53 10° S 05:16:48 24° SE 05:32:00 10° E visible
19 Dec 14.2 05:19:33 10° SSW 05:37:32 31° SE 05:54:31 10° E visible
20 Dec 14.5 03:28:50 10° SE 03:35:49 12° SE 03:42:58 10° ESE visible
20 Dec 14.0 05:38:56 10° SSW 05:58:23 38° SE 06:16:31 10° E visible
21 Dec 14.2 03:43:53 10° SSE 03:56:13 18° SE 04:09:10 10° E visible
21 Dec 13.8 05:58:47 10° SSW 06:19:19 45° SSE 06:38:10 10° E visible
22 Dec 14.1 04:01:35 10° S 04:16:41 25° SE 04:32:46 10° E visible
22 Dec 13.7 06:19:01 10° SW 06:40:23 51° SSE 06:59:38 10° E visible
23 Dec 14.0 04:20:21 10° S 04:37:14 31° SE 04:55:22 10° E visible
23 Dec 13.6 06:39:34 10° SW 07:01:34 57° SSE 07:20:59 10° E visible
24 Dec 14.2 02:30:36 10° SE 02:36:12 12° ESE 02:42:08 10° ESE visible
24 Dec 13.8 04:39:46 10° SSW 04:57:55 38° SE 05:17:27 10° E visible
24 Dec 13.5 07:00:22 10° WSW 07:22:50 62° SSE 07:42:15 10° E visible
25 Dec 14.0 02:45:26 10° SSE 02:56:24 18° SE 03:08:50 10° E visible
25 Dec 13.6 04:59:39 10° SSW 05:18:43 45° SSE 05:39:13 10° E visible
26 Dec 13.8 03:03:12 10° S 03:16:41 24° SE 03:32:35 10° E visible
26 Dec 13.5 05:19:53 10° SW 05:39:42 52° SSE 06:00:47 10° E visible
